This demonstration page uses our WeatherBlox Daily Observations layout. Learn more.

Left ArrowRight Arrow

Hourly Observations for October 11, 2020

Temp ( °F °C ) Dew Point ( °F °C ) Humidity (%) Winds ( mph kmh ) Pressure ( in mb ) Visibility ( mi km ) Precip ( " mm )
12:54 am 00:54 Clear 63 17.2 55 12.8 76 76 S 7 11 29.81 1010 10 16.0934 0 0
1:54 am 01:54 Clear 61 16.1 55 12.8 81 81 S 6 9 29.8 1009 10 16.0934 0 0
2:54 am 02:54 Clear 61 16.1 56 13.3 84 84 S 6 9 29.79 1009 10 16.0934 0 0
3:54 am 03:54 Clear 58 14.4 55 12.8 90 90 SSE 7 11 29.76 1008 9 14.48406 0 0
4:54 am 04:54 Clear 57 13.9 55 12.8 93 93 S 7 11 29.75 1007 7 11.26538 0 0
5:54 am 05:54 Clear 58 14.4 55 12.8 90 90 S 8 13 29.74 1007 10 16.0934 0 0
6:54 am 06:54 Clear 58 14.4 56 13.3 93 93 S 7 11 29.75 1007 10 16.0934 0 0
7:54 am 07:54 Sunny 61 16.1 58 14.4 90 90 S 8 13 29.73 1007 10 16.0934 0 0
8:54 am 08:54 Sunny 66 18.9 60 15.6 81 81 S 15 24 29.72 1007 10 16.0934 0 0
9:54 am 09:54 Sunny 72 22.2 61 16.1 68 68 S 17 28 29.7 1006 10 16.0934 0 0
10:54 am 10:54 Sunny with Light Rain 76 24.4 61 16.1 60 60 S 23 37 29.65 1004 10 16.0934 0.001 0.001
11:54 am 11:54 Sunny 79 26.1 59 15 50 50 S 29 46 29.62 1003 10 16.0934 0.001 0.001
12:54 pm 12:54 Sunny 83 28.3 58 14.4 43 43 S 26 43 29.58 1002 10 16.0934 0 0
1:54 pm 13:54 Sunny 86 30 58 14.4 39 39 S 32 52 29.54 1000 10 16.0934 0 0
2:54 pm 14:54 Sunny 86 30 58 14.4 39 39 S 32 52 29.49 999 10 16.0934 0 0
3:54 pm 15:54 Sunny 87 30.6 58 14.4 37 37 S 30 48 29.48 998 10 16.0934 0 0
4:54 pm 16:54 Sunny 87 30.6 59 15 39 39 S 25 41 29.47 998 10 16.0934 0 0
5:54 pm 17:54 Sunny 85 29.4 59 15 42 42 S 23 37 29.47 998 10 16.0934 0 0
6:54 pm 18:54 Clear 82 27.8 59 15 46 46 S 20 31 29.48 998 10 16.0934 0 0
7:54 pm 19:54 Clear 79 26.1 59 15 50 50 S 13 20 29.49 999 10 16.0934 0 0
8:54 pm 20:54 Mostly Clear 77 25 58 14.4 52 52 S 12 19 29.47 998 10 16.0934 0 0
9:42 pm 21:42 Mostly Cloudy with Light Rain 71 21.7 47 8.3 42 42 NW 41 67 29.6 1002 6 9.65604 0.001 0.001
9:50 pm 21:50 Mostly Cloudy with Nearby Thunderstorms 64 18 50 10 60 60 NNW 38 61 29.64 1004 4 6.43736 0.001 0.001
9:54 pm 21:54 Cloudy with Nearby Thunderstorms 60 15.6 53 11.7 78 78 N 40 65 29.64 1004 3 4.82802 0.001 0.001
10:02 pm 22:02 Cloudy with Heavy Thunderstorms 58 14.4 52 11.1 81 81 NNW 33 54 29.69 1005 3 4.82802 0.001 0.001
10:26 pm 22:26 Cloudy with Nearby Thunderstorms 58 14.4 52 11.1 81 81 NNW 25 41 29.72 1006 5 8.0467 0.14 3.556
10:46 pm 22:46 Cloudy with Rain 57 13.9 49 9.4 74 74 NNW 28 44 29.76 1008 9 14.48406 0.17 4.318
10:54 pm 22:54 Cloudy with Rain 56 13.3 49 9.4 77 77 NNW 20 31 29.78 1008 8 12.87472 0.18 4.572
11:54 pm 23:54 Mostly Cloudy 56 13.3 46 7.8 70 70 NNW 15 24 29.78 1009 10 16.0934 0.02 0.508

Powered by AerisWeather